Powrót do katalogu

STARLINK-36710

AktywnyŁącznośćSSO
NORAD 67971·PAYLOAD·🇺🇸 United States

Wystrzelony Feb 25, 2026 z Vandenberg Space Force Base

Loading…

Następne Przeloty (najbliższe 24 godziny)

TLE

ŚwieżeSource: CelesTrak SupGP

Epoka: Sep 14, 2026, 21:30 UTC

1 67971C 26038L   26257.89631944  .00037001  00000+0  11488-2 0  2576
2 67971  97.2847 266.3148 0001683  88.8290 299.8291 15.33415694    14

Śledź STARLINK-36710 w czasie rzeczywistym z AllMySat

Download on the App Store